SCP
-0 -0 -0 -0 0 0 0 0 0 0 0 0 0 0 0 0 0 -0 -0 0 -0 -0 0 0 0 0 -0 -0 -0 0 -0 -0 -0 -0 -0 -0 -0 -0 -0 -0 -0 -0 -0 -0 -0 -0 -0 -0 -0
0 -0 -0 -0 0 0 0 0 -0 -0 0 0 0 0 0 0 0 0 0 0 -0 0 0 0 0 -0 -0 -0 -0 -0 -0 -0 -0 -0 -0 -0 -0 -0 -0 -0 -0 -0 -0 -0 -0 -0 0 0 -0
0 0 -0 -0 0 0 -0 -0 0 0 0 0 0 0 0 0 0 0 0 0 -0 0 0 0 0 -0 -0 -0 -0 -0 -0 -0 -0 -0 -0 -0 -0 -0 -0 -0 -0 -0 -0 0 -0 -0 0 0 0
0 -0 -0 0 0 0 0 0 -0 0 0 0 0 0 0 0 0 0 0 -0 0 0 0 -0 -0 -0 -0 -0 -0 -0 -0 -0 -0 -0 -0 -0 -0 -0 -0 0 0 -0 -0 0 0 0 0 0 0
0 0 0 0 0 0 0 -0 -0 -0 -0 0 0 0 0 0 0 0 0 0 0 0 0 0 -0 -0 -0 -0 -0 -0 -0 -0 -0 -0 -0 -0 -0 -0 -0 -0 0 0 0 -0 0 0 0 0 0
0 0 0 0 0 0 0 0 0 -0 -0 0 0 0 0 0 0 0 0 0 0 0 0 0 0 -0 -0 -0 -0 -0 -0 -0 -0 -0 -0 -0 -0 -0 0 0 0 0 0 0 0 0 0 0 0
0 0 0 0 0 0 0 0 0 0 0 -0 0 0 0 0 0 0 0 0 0 0 0 0 0 0 0 0 -0 0 -0 -0 -0 -0 -0 -0 -0 -0 -0 0 0 0 0 0 0 0 0 0 0
0 0 0 0 0 0 0 0 0 0 0 0 0 0 0 0 0 0 0 0 0 0 0 0 0 0 0 0 0 0 0 -0 -0 -0 -0 -0 0 -0 -0 0 0 0 0 0 0 0 0 0 0
0 0 0 0 0 0 0 0 0 0 0 0 0 0 -0 -0 0 0 0 0 0 0 0 0 0 0 0 0 0 0 0 0 -0 0 0 0 0 0 0 0 0 0 0 0 0 0 0 0 0
0 0 0 0 0 0 0 0 0 0 0 0 0 0 0 -0 0 0 0 0 0 0 0 0 0 0 0 0 0 0 0 0 0 0 0 0 0 0 0 0 0 0 0 0 0 0 0 0 0
0 0 0 0 0 0 0 0 0 0 0 0 0 0 0 0 0 0 0 0 0 0 0 0 0 0 0 0 0 0 0 0 0 0 0 0 0 0 0 0 0 0 0 0 0 0 0 0 0
0 0 0 0 0 0 0 0 0 0 0 0 0 0 0 0 0 0 0 0 0 0 0 0 0 0 0 0 0 0 0 0 0 0 0 0 0 0 0 0 0 0 0 0 0 0 0 0 0
0 0 0 0 0 0 0 0 0 0 0 0 0 0 0 0 0 0 0 0 0 0 0 0 0 0 0 0 0 0 0 0 0 0 0 0 0 0 0 0 0 0 0 0 0 0 0 0 0
0 0 0 0 0 0 0 0 0 0 0 0 0 0 0 0 0 0 0 0 0 0 0 0 0 0 0 0 0 0 0 0 0 0 0 0 0 0 0 0 0 0 0 0 0 0 0 0 0
0 0 0 0 0 0 0 0 0 0 0 0 0 0 0 0 0 0 0 0 0 0 0 0 0 0 0 0 0 0 0 0 0 0 0 0 0 0 0 0 0 0 0 0 0 0 0 0 0
0 0 0 0 0 0 0 0 0 0 0 0 0 0 0 0 0 0 0 0 0 0 0 0 0 0 0 0 0 0 0 0 0 0 0 0 0 0 0 0 0 0 0 0 0 0 0 0 0
0 0 0 0 0 0 0 0 0 0 0 0 0 0 0 0 0 0 0 0 0 0 0 0 0 0 0 0 0 0 0 0 0 0 0 0 0 0 0 0 0 0 0 0 0 0 0 0 0
0 0 0 0 0 0 0 0 0 0 0 0 0 0 0 0 0 0 0 0 0 0 0 0 0 0 0 0 0 0 0 0 0 0 0 0 0 0 0 0 0 0 0 0 0 0 0 0 0
0 0 0 0 0 0 0 0 0 0 0 0 0 0 0 0 0 0 0 0 0 0 0 0 0 0 0 0 0 0 0 0 0 0 0 0 0 0 0 0 0 0 0 0 0 0 0 0 0
0 0 0 0 0 0 0 0 0 0 0 0 0 0 0 0 0 0 0 0 0 0 0 0 0 0 0 0 0 0 0 0 0 0 0 0 0 0 0 0 0 0 0 0 0 0 0 0 0
0 0 0 0 0 0 0 0 0 0 0 0 0 0 0 0 0 0 0 0 0 0 0 0 0 0 0 0 0 0 0 0 0 0 0 0 0 0 0 0 0 0 0 0 0 0 0 0 0
0 0 0 0 0 0 0 -0 0 0 0 0 0 0 0 0 0 0 0 0 0 0 0 0 0 0 0 0 0 0 0 0 0 0 0 0 0 0 0 0 0 0 0 0 0 0 0 0 0
0 0 0 0 0 0 0 0 -0 0 0 0 0 0 0 0 0 0 0 0 0 0 0 0 0 0 0 0 0 0 0 0 0 0 0 0 0 0 0 0 0 0 0 0 0 0 0 0 0
0 0 0 0 0 0 0 0 -0 0 0 0 0 0 0 0 0 0 0 0 0 0 0 0 0 0 0 0 0 0 0 0 0 0 0 0 0 0 0 0 0 0 0 0 0 0 0 0 0
0 0 0 0 0 0 0 0 0 0 0 0 0 0 0 0 0 0 0 0 0 0 0 0 0 0 0 0 0 0 0 0 0 0 0 0 0 0 0 0 0 0 0 0 0 0 0 0 0
0 0 0 0 0 0 0 0 0 -0 0 0 0 0 0 0 0 0 0 0 0 0 0 0 0 0 0 0 0 0 0 0 0 0 0 0 0 0 0 0 0 0 0 0 0 0 0 0 0
0 0 0 0 0 0 0 0 0 0 0 0 0 0 0 0 0 0 0 0 0 0 0 0 0 0 0 0 0 0 0 0 0 0 0 0 0 0 0 0 0 0 0 0 0 0 0 0 0
0 0 0 0 0 0 0 0 0 0 0 0 0 0 0 0 0 -0 -0 -0 0 0 0 0 0 0 0 0 0 0 0 0 0 0 0 0 0 0 0 0 0 0 0 0 0 0 0 0 0
0 0 0 0 0 0 0 0 0 0 0 0 0 0 0 -0 0 -0 0 0 0 0 0 0 0 0 0 0 0 0 0 0 0 0 0 0 0 0 0 0 0 0 0 0 0 0 0 0 0
0 0 0 0 0 0 0 0 0 0 0 0 0 0 0 0 0 0 0 0 0 0 0 0 0 0 0 0 0 0 0 0 0 0 0 0 0 0 0 0 0 0 0 0 0 0 0 0 0
Wind_Speed_500mb
31 23 10 3 3 6 4 9 13 12 8 12 17 16 17 29 12 13 37 24 35 37 41 32 26 22 25 27 28 26 21 18 16 13 12 14 13 14 14 18 17 12 20 23 22 23 23 24 24
30 18 12 10 5 7 6 16 8 13 29 16 13 4 6 9 15 33 41 33 28 40 41 32 28 24 25 27 29 27 20 16 13 11 12 14 13 11 13 15 16 18 22 25 20 21 21 21 21
29 15 9 7 9 5 6 8 15 29 20 15 11 6 10 10 17 43 25 45 33 36 37 33 28 25 24 26 27 26 21 15 12 12 11 12 12 10 11 11 13 17 20 19 18 18 18 19 19
25 6 15 6 20 8 11 13 32 20 10 1 4 19 15 23 21 29 48 50 45 39 37 33 27 24 23 23 24 22 19 14 12 10 11 12 13 12 10 7 8 14 17 17 16 16 16 16 16
18 13 7 11 18 11 5 28 30 16 20 19 10 14 17 19 20 25 55 39 40 43 37 35 29 24 22 21 21 20 18 18 16 15 9 10 11 11 11 9 3 8 12 14 13 13 13 12 13
12 9 9 11 16 15 11 15 25 21 19 23 10 22 13 17 26 45 49 31 35 41 37 37 30 25 22 20 20 20 18 19 18 18 8 6 8 7 11 12 10 7 7 10 10 7 8 8 9
14 7 14 25 10 11 12 16 14 16 16 17 3 11 19 27 33 43 45 36 25 38 36 39 33 29 25 22 20 19 17 16 19 19 20 12 8 6 7 13 12 9 7 6 8 7 5 3 3
11 7 14 16 13 9 19 20 15 18 14 28 13 7 17 40 41 43 43 38 30 31 35 39 37 32 28 26 23 22 21 19 16 20 19 17 13 10 7 10 14 13 11 10 8 9 8 6 4
4 6 10 17 18 4 30 17 16 12 24 14 11 13 29 46 48 48 45 45 51 37 34 37 37 34 30 27 26 26 24 23 20 19 19 15 10 6 9 6 1 9 15 15 15 14 13 12 12
8 7 14 14 24 14 30 22 22 9 18 18 17 30 41 41 52 58 54 48 46 48 42 40 38 33 30 28 29 28 27 24 23 23 21 17 9 15 13 14 10 10 9 12 17 17 16 17 17
10 8 12 21 22 21 11 24 29 13 13 24 38 41 41 40 44 53 52 48 42 53 48 43 43 39 31 30 30 31 30 27 26 25 25 23 24 30 29 26 22 20 19 15 13 13 18 20 20
6 17 7 9 15 14 14 20 13 21 0 7 42 37 42 40 39 48 55 54 40 47 54 51 46 46 41 37 35 30 31 28 27 25 25 26 30 32 28 30 25 19 18 16 19 18 18 19 21
8 13 5 7 4 11 15 9 12 17 13 2 15 45 39 38 37 32 31 34 37 40 46 52 52 50 50 44 37 34 31 31 30 31 30 31 30 30 29 26 25 26 23 22 20 24 24 27 27
5 28 15 10 13 9 7 12 7 14 16 9 18 24 27 30 33 35 39 37 42 39 42 43 50 50 51 52 48 41 37 35 34 36 35 34 34 32 31 30 30 29 29 27 27 26 27 28 29
2 6 12 18 18 7 7 13 15 9 14 16 15 23 28 29 30 39 41 43 45 42 39 42 40 45 50 51 52 52 49 46 44 39 39 39 37 38 36 35 33 32 31 31 31 31 30 32 33
8 9 9 20 28 12 13 10 17 31 21 20 28 29 31 29 32 30 31 35 39 42 44 43 42 42 45 50 49 50 49 50 49 47 47 47 45 41 42 41 38 34 35 34 34 32 34 34 33
13 8 18 5 11 9 15 3 11 15 10 15 23 30 35 29 30 31 34 32 35 39 42 46 46 44 42 45 48 48 48 49 48 46 45 46 50 49 44 42 39 37 37 39 38 35 36 36 36
8 15 15 17 14 10 15 18 6 14 14 20 21 30 31 29 30 25 30 34 36 37 40 42 46 48 48 45 45 49 51 52 51 50 49 46 45 46 49 47 42 40 42 43 40 39 36 36 36
15 5 15 9 8 4 14 16 18 24 28 26 24 25 28 33 30 32 37 37 43 48 49 51 52 52 53 55 55 54 55 54 55 54 53 51 50 47 47 49 47 46 47 45 41 38 39 39 37
8 11 12 9 13 5 13 17 15 17 18 26 29 36 40 38 39 40 42 50 55 54 57 57 58 57 59 60 59 58 55 58 56 55 57 56 55 53 52 51 51 51 49 47 45 43 43 42 40
10 15 12 9 6 8 10 15 20 20 50 44 44 48 50 50 49 44 45 46 50 56 60 57 61 57 58 61 59 57 55 56 55 54 53 53 54 56 55 49 49 53 52 51 47 45 45 44 42
14 10 10 11 6 4 14 9 6 10 14 15 40 46 50 49 48 49 49 43 44 38 36 48 58 63 66 68 67 66 64 63 58 54 49 47 42 41 55 51 46 46 48 50 46 43 43 42 44
6 9 6 6 2 6 9 4 10 18 13 15 29 38 35 18 15 19 27 37 45 53 61 67 66 60 57 62 66 66 64 60 51 47 37 34 38 38 35 48 51 50 49 48 45 40 44 44 45
15 16 13 5 3 1 17 12 8 10 7 12 10 18 11 9 9 14 20 26 26 31 39 47 59 63 65 60 64 65 62 58 50 42 36 41 41 42 38 42 47 46 45 46 43 40 41 40 44
9 13 4 4 2 9 6 10 17 21 12 7 12 19 3 9 9 11 15 20 23 24 21 21 28 39 43 57 61 64 62 52 51 46 45 44 39 36 30 35 38 40 40 40 37 37 42 41 42
18 12 8 12 8 6 9 9 10 12 7 4 4 4 8 9 10 11 15 18 18 17 16 15 14 16 24 30 35 46 55 55 49 44 41 29 26 22 24 26 31 34 34 34 34 36 37 39 43
10 11 5 9 3 6 9 10 14 13 16 13 13 5 7 11 11 13 13 13 12 11 8 7 9 11 16 18 20 27 35 39 43 41 38 35 31 28 24 22 22 25 29 32 35 36 38 40 39
2 9 7 5 6 5 7 9 10 9 13 15 15 15 6 8 7 10 16 20 18 12 7 5 5 5 8 11 15 19 23 27 26 25 24 25 23 22 22 21 23 25 27 30 32 34 37 40 41
5 5 6 5 8 7 4 8 3 10 14 19 17 16 15 16 21 25 32 31 23 18 13 8 8 8 8 9 11 14 17 18 18 17 17 16 16 17 18 20 22 25 29 31 33 35 38 41 43
6 11 13 7 7 6 5 10 7 15 15 22 9 8 11 19 21 22 23 20 28 30 20 17 17 18 18 17 17 16 16 15 14 13 12 13 15 18 18 20 22 24 27 30 32 33 36 38 41
Wind_Direction_500mb
336 342 329 275 308 207 153 122 76 94 124 62 86 37 70 50 26 123 138 165 175 171 159 150 144 140 140 141 147 131 137 128 126 122 118 126 126 119 95 103 131 120 92 87 93 91 93 94 94
334 343 316 268 242 254 98 112 164 135 95 109 100 116 168 89 75 136 152 155 177 160 159 152 148 142 141 146 151 139 147 140 133 126 131 136 135 133 113 95 118 115 109 101 96 96 92 89 90
337 326 275 213 238 15 96 137 110 83 118 155 128 24 46 87 114 147 157 159 176 162 162 155 151 146 147 151 155 153 157 149 130 116 116 139 140 146 137 107 112 113 118 113 100 91 87 83 82
337 244 257 250 270 75 67 103 104 124 111 13 28 99 93 84 131 166 149 176 176 163 171 159 156 153 152 155 158 166 170 171 163 142 132 131 137 147 161 138 111 120 116 119 110 102 91 86 83
308 276 269 234 270 106 31 116 137 155 158 166 208 134 101 133 150 170 147 181 176 167 170 169 166 163 161 161 163 167 175 174 158 148 137 135 122 149 172 182 162 133 133 126 113 100 99 88 83
298 237 282 258 244 102 121 138 155 172 154 133 185 125 102 157 155 147 152 178 175 169 174 177 173 173 171 170 171 172 174 169 163 161 165 159 149 149 178 181 192 179 153 139 142 132 113 98 84
252 297 271 292 300 121 140 172 185 148 147 157 173 119 138 152 159 154 153 165 194 174 181 180 180 180 179 180 183 183 180 179 169 157 173 187 175 198 204 197 200 205 202 194 175 185 161 146 106
303 281 275 264 292 175 131 176 191 164 126 126 180 167 160 168 163 158 159 173 186 186 187 185 186 189 190 189 190 190 191 200 183 186 192 201 217 216 207 205 217 218 218 226 228 228 231 244 255
275 278 260 255 254 161 142 169 193 136 130 133 155 80 155 170 159 158 165 185 186 177 187 192 191 191 196 197 200 200 199 202 208 206 204 209 232 242 279 262 245 249 222 228 236 238 240 248 258
206 234 255 19 352 23 159 193 174 153 166 145 140 120 161 175 174 169 173 199 197 181 190 201 197 192 201 205 203 207 209 210 212 214 214 211 191 249 264 270 277 279 275 255 249 250 250 252 259
212 235 29 22 2 358 303 220 167 204 195 187 176 159 176 186 181 182 178 202 205 191 190 203 204 186 206 203 209 211 214 215 218 218 220 212 189 219 240 249 266 271 268 269 267 260 259 259 255
228 242 249 3 355 337 316 211 212 214 59 187 192 197 182 190 192 190 192 202 210 205 200 205 208 196 196 209 223 214 221 219 224 227 224 223 216 228 236 244 256 263 268 272 276 278 280 277 272
203 266 176 220 285 294 310 290 271 242 239 194 106 178 184 190 199 202 205 205 215 217 214 213 214 211 205 206 219 224 223 230 228 231 233 233 233 235 242 246 246 260 268 272 267 264 268 274 278
335 235 188 203 223 221 255 243 148 249 227 209 158 167 189 199 202 198 201 205 213 227 223 222 219 219 220 215 219 216 221 235 235 235 241 242 241 242 244 246 249 252 258 261 265 268 271 277 281
90 266 241 213 215 209 184 275 211 229 192 166 195 195 199 205 214 207 207 207 208 222 226 232 226 226 227 228 227 228 226 227 234 235 238 249 247 245 248 250 252 256 259 260 262 267 267 271 276
209 234 206 207 184 188 178 247 214 224 211 210 215 205 202 205 212 220 218 219 213 215 221 229 235 231 230 233 235 235 238 239 240 238 240 241 249 249 246 250 256 258 260 262 264 266 271 274 278
196 214 218 179 187 143 193 194 178 166 193 235 243 222 207 202 210 211 211 222 223 225 224 222 233 239 236 235 238 240 243 244 248 249 245 240 245 250 251 251 252 255 256 258 264 266 269 275 281
210 212 265 227 197 242 198 251 136 175 209 231 235 248 249 209 206 214 221 223 226 230 236 236 235 239 244 243 241 242 243 246 248 251 252 251 247 244 247 250 248 250 253 256 258 263 266 271 277
249 309 268 239 52 14 238 250 247 216 193 215 241 249 244 245 233 229 230 236 232 231 234 236 237 241 242 244 243 242 247 251 251 255 255 254 254 251 247 246 247 246 250 254 259 263 266 268 267
239 263 273 99 96 56 317 295 268 262 260 255 245 247 251 246 243 242 239 235 236 240 240 236 240 240 243 246 250 252 256 261 263 260 256 256 253 251 251 248 244 245 247 251 256 257 262 265 265
217 228 249 245 108 196 290 264 239 244 244 243 246 248 252 252 250 248 248 245 246 246 243 238 235 232 238 246 251 252 256 261 259 257 256 256 252 249 247 245 244 242 245 250 252 255 259 261 267
206 206 252 288 116 224 175 274 310 255 191 222 247 246 250 254 260 261 253 242 233 229 237 250 251 247 238 236 241 244 245 250 259 263 267 269 262 255 245 251 249 246 246 251 253 252 256 259 263
110 101 188 237 136 316 250 271 240 226 216 224 239 232 239 232 223 235 252 259 249 248 248 245 241 237 239 237 237 241 241 247 251 254 260 262 270 266 250 234 238 240 242 253 258 253 253 263 268
137 105 76 66 203 246 223 195 254 219 229 230 69 97 93 32 298 272 265 258 272 276 268 256 249 241 233 235 234 238 240 240 241 238 232 235 241 256 253 233 234 238 240 249 256 261 269 260 260
182 153 82 31 353 218 355 212 248 301 340 53 125 129 35 311 331 323 272 271 285 293 287 272 254 249 236 239 242 237 236 234 240 243 245 247 246 247 252 241 239 240 243 245 249 249 260 267 269
201 176 147 191 189 198 355 238 253 247 307 355 241 211 294 332 345 325 308 306 298 299 288 272 260 242 239 243 241 238 238 237 239 235 243 240 228 239 239 239 239 241 245 248 249 254 259 263 268
184 221 77 103 345 72 205 255 305 278 277 156 137 101 59 19 1 336 327 329 318 309 290 271 255 243 237 240 231 222 221 223 225 228 222 216 214 223 235 237 241 247 255 259 261 262 262 263 265
276 153 101 319 135 233 255 239 232 215 238 122 128 114 40 345 7 16 18 9 351 323 295 268 242 221 217 213 216 216 214 213 214 210 208 212 216 226 235 243 249 253 255 258 261 265 268 269 272
169 189 215 173 175 182 171 243 257 71 49 103 112 76 73 68 58 49 33 13 360 347 315 267 237 222 218 219 209 198 197 196 201 206 210 219 226 232 240 251 260 268 273 272 272 272 272 274 275
247 208 190 155 210 217 120 262 157 95 76 91 67 15 86 83 76 59 36 15 344 331 313 287 261 247 248 240 217 203 195 194 200 211 225 242 255 263 266 271 275 277 277 280 281 280 277 276 276
Wind_Speed_850mb
31 23 10 3 3 6 4 9 13 12 8 12 17 16 17 29 12 13 37 24 35 37 41 32 26 22 25 27 28 26 21 18 16 13 12 14 13 14 14 18 17 12 20 23 22 23 23 24 24
30 18 12 10 5 7 6 16 8 13 29 16 13 4 6 9 15 33 41 33 28 40 41 32 28 24 25 27 29 27 20 16 13 11 12 14 13 11 13 15 16 18 22 25 20 21 21 21 21
29 15 9 7 9 5 6 8 15 29 20 15 11 6 10 10 17 43 25 45 33 36 37 33 28 25 24 26 27 26 21 15 12 12 11 12 12 10 11 11 13 17 20 19 18 18 18 19 19
25 6 15 6 20 8 11 13 32 20 10 1 4 19 15 23 21 29 48 50 45 39 37 33 27 24 23 23 24 22 19 14 12 10 11 12 13 12 10 7 8 14 17 17 16 16 16 16 16
18 13 7 11 18 11 5 28 30 16 20 19 10 14 17 19 20 25 55 39 40 43 37 35 29 24 22 21 21 20 18 18 16 15 9 10 11 11 11 9 3 8 12 14 13 13 13 12 13
12 9 9 11 16 15 11 15 25 21 19 23 10 22 13 17 26 45 49 31 35 41 37 37 30 25 22 20 20 20 18 19 18 18 8 6 8 7 11 12 10 7 7 10 10 7 8 8 9
14 7 14 25 10 11 12 16 14 16 16 17 3 11 19 27 33 43 45 36 25 38 36 39 33 29 25 22 20 19 17 16 19 19 20 12 8 6 7 13 12 9 7 6 8 7 5 3 3
11 7 14 16 13 9 19 20 15 18 14 28 13 7 17 40 41 43 43 38 30 31 35 39 37 32 28 26 23 22 21 19 16 20 19 17 13 10 7 10 14 13 11 10 8 9 8 6 4
4 6 10 17 18 4 30 17 16 12 24 14 11 13 29 46 48 48 45 45 51 37 34 37 37 34 30 27 26 26 24 23 20 19 19 15 10 6 9 6 1 9 15 15 15 14 13 12 12
8 7 14 14 24 14 30 22 22 9 18 18 17 30 41 41 52 58 54 48 46 48 42 40 38 33 30 28 29 28 27 24 23 23 21 17 9 15 13 14 10 10 9 12 17 17 16 17 17
10 8 12 21 22 21 11 24 29 13 13 24 38 41 41 40 44 53 52 48 42 53 48 43 43 39 31 30 30 31 30 27 26 25 25 23 24 30 29 26 22 20 19 15 13 13 18 20 20
6 17 7 9 15 14 14 20 13 21 0 7 42 37 42 40 39 48 55 54 40 47 54 51 46 46 41 37 35 30 31 28 27 25 25 26 30 32 28 30 25 19 18 16 19 18 18 19 21
8 13 5 7 4 11 15 9 12 17 13 2 15 45 39 38 37 32 31 34 37 40 46 52 52 50 50 44 37 34 31 31 30 31 30 31 30 30 29 26 25 26 23 22 20 24 24 27 27
5 28 15 10 13 9 7 12 7 14 16 9 18 24 27 30 33 35 39 37 42 39 42 43 50 50 51 52 48 41 37 35 34 36 35 34 34 32 31 30 30 29 29 27 27 26 27 28 29
2 6 12 18 18 7 7 13 15 9 14 16 15 23 28 29 30 39 41 43 45 42 39 42 40 45 50 51 52 52 49 46 44 39 39 39 37 38 36 35 33 32 31 31 31 31 30 32 33
8 9 9 20 28 12 13 10 17 31 21 20 28 29 31 29 32 30 31 35 39 42 44 43 42 42 45 50 49 50 49 50 49 47 47 47 45 41 42 41 38 34 35 34 34 32 34 34 33
13 8 18 5 11 9 15 3 11 15 10 15 23 30 35 29 30 31 34 32 35 39 42 46 46 44 42 45 48 48 48 49 48 46 45 46 50 49 44 42 39 37 37 39 38 35 36 36 36
8 15 15 17 14 10 15 18 6 14 14 20 21 30 31 29 30 25 30 34 36 37 40 42 46 48 48 45 45 49 51 52 51 50 49 46 45 46 49 47 42 40 42 43 40 39 36 36 36
15 5 15 9 8 4 14 16 18 24 28 26 24 25 28 33 30 32 37 37 43 48 49 51 52 52 53 55 55 54 55 54 55 54 53 51 50 47 47 49 47 46 47 45 41 38 39 39 37
8 11 12 9 13 5 13 17 15 17 18 26 29 36 40 38 39 40 42 50 55 54 57 57 58 57 59 60 59 58 55 58 56 55 57 56 55 53 52 51 51 51 49 47 45 43 43 42 40
10 15 12 9 6 8 10 15 20 20 50 44 44 48 50 50 49 44 45 46 50 56 60 57 61 57 58 61 59 57 55 56 55 54 53 53 54 56 55 49 49 53 52 51 47 45 45 44 42
14 10 10 11 6 4 14 9 6 10 14 15 40 46 50 49 48 49 49 43 44 38 36 48 58 63 66 68 67 66 64 63 58 54 49 47 42 41 55 51 46 46 48 50 46 43 43 42 44
6 9 6 6 2 6 9 4 10 18 13 15 29 38 35 18 15 19 27 37 45 53 61 67 66 60 57 62 66 66 64 60 51 47 37 34 38 38 35 48 51 50 49 48 45 40 44 44 45
15 16 13 5 3 1 17 12 8 10 7 12 10 18 11 9 9 14 20 26 26 31 39 47 59 63 65 60 64 65 62 58 50 42 36 41 41 42 38 42 47 46 45 46 43 40 41 40 44
9 13 4 4 2 9 6 10 17 21 12 7 12 19 3 9 9 11 15 20 23 24 21 21 28 39 43 57 61 64 62 52 51 46 45 44 39 36 30 35 38 40 40 40 37 37 42 41 42
18 12 8 12 8 6 9 9 10 12 7 4 4 4 8 9 10 11 15 18 18 17 16 15 14 16 24 30 35 46 55 55 49 44 41 29 26 22 24 26 31 34 34 34 34 36 37 39 43
10 11 5 9 3 6 9 10 14 13 16 13 13 5 7 11 11 13 13 13 12 11 8 7 9 11 16 18 20 27 35 39 43 41 38 35 31 28 24 22 22 25 29 32 35 36 38 40 39
2 9 7 5 6 5 7 9 10 9 13 15 15 15 6 8 7 10 16 20 18 12 7 5 5 5 8 11 15 19 23 27 26 25 24 25 23 22 22 21 23 25 27 30 32 34 37 40 41
5 5 6 5 8 7 4 8 3 10 14 19 17 16 15 16 21 25 32 31 23 18 13 8 8 8 8 9 11 14 17 18 18 17 17 16 16 17 18 20 22 25 29 31 33 35 38 41 43
6 11 13 7 7 6 5 10 7 15 15 22 9 8 11 19 21 22 23 20 28 30 20 17 17 18 18 17 17 16 16 15 14 13 12 13 15 18 18 20 22 24 27 30 32 33 36 38 41
Wind_Direction_850mb
336 342 329 275 308 207 153 122 76 94 124 62 86 37 70 50 26 123 138 165 175 171 159 150 144 140 140 141 147 131 137 128 126 122 118 126 126 119 95 103 131 120 92 87 93 91 93 94 94
334 343 316 268 242 254 98 112 164 135 95 109 100 116 168 89 75 136 152 155 177 160 159 152 148 142 141 146 151 139 147 140 133 126 131 136 135 133 113 95 118 115 109 101 96 96 92 89 90
337 326 275 213 238 15 96 137 110 83 118 155 128 24 46 87 114 147 157 159 176 162 162 155 151 146 147 151 155 153 157 149 130 116 116 139 140 146 137 107 112 113 118 113 100 91 87 83 82
337 244 257 250 270 75 67 103 104 124 111 13 28 99 93 84 131 166 149 176 176 163 171 159 156 153 152 155 158 166 170 171 163 142 132 131 137 147 161 138 111 120 116 119 110 102 91 86 83
308 276 269 234 270 106 31 116 137 155 158 166 208 134 101 133 150 170 147 181 176 167 170 169 166 163 161 161 163 167 175 174 158 148 137 135 122 149 172 182 162 133 133 126 113 100 99 88 83
298 237 282 258 244 102 121 138 155 172 154 133 185 125 102 157 155 147 152 178 175 169 174 177 173 173 171 170 171 172 174 169 163 161 165 159 149 149 178 181 192 179 153 139 142 132 113 98 84
252 297 271 292 300 121 140 172 185 148 147 157 173 119 138 152 159 154 153 165 194 174 181 180 180 180 179 180 183 183 180 179 169 157 173 187 175 198 204 197 200 205 202 194 175 185 161 146 106
303 281 275 264 292 175 131 176 191 164 126 126 180 167 160 168 163 158 159 173 186 186 187 185 186 189 190 189 190 190 191 200 183 186 192 201 217 216 207 205 217 218 218 226 228 228 231 244 255
275 278 260 255 254 161 142 169 193 136 130 133 155 80 155 170 159 158 165 185 186 177 187 192 191 191 196 197 200 200 199 202 208 206 204 209 232 242 279 262 245 249 222 228 236 238 240 248 258
206 234 255 19 352 23 159 193 174 153 166 145 140 120 161 175 174 169 173 199 197 181 190 201 197 192 201 205 203 207 209 210 212 214 214 211 191 249 264 270 277 279 275 255 249 250 250 252 259
212 235 29 22 2 358 303 220 167 204 195 187 176 159 176 186 181 182 178 202 205 191 190 203 204 186 206 203 209 211 214 215 218 218 220 212 189 219 240 249 266 271 268 269 267 260 259 259 255
228 242 249 3 355 337 316 211 212 214 59 187 192 197 182 190 192 190 192 202 210 205 200 205 208 196 196 209 223 214 221 219 224 227 224 223 216 228 236 244 256 263 268 272 276 278 280 277 272
203 266 176 220 285 294 310 290 271 242 239 194 106 178 184 190 199 202 205 205 215 217 214 213 214 211 205 206 219 224 223 230 228 231 233 233 233 235 242 246 246 260 268 272 267 264 268 274 278
335 235 188 203 223 221 255 243 148 249 227 209 158 167 189 199 202 198 201 205 213 227 223 222 219 219 220 215 219 216 221 235 235 235 241 242 241 242 244 246 249 252 258 261 265 268 271 277 281
90 266 241 213 215 209 184 275 211 229 192 166 195 195 199 205 214 207 207 207 208 222 226 232 226 226 227 228 227 228 226 227 234 235 238 249 247 245 248 250 252 256 259 260 262 267 267 271 276
209 234 206 207 184 188 178 247 214 224 211 210 215 205 202 205 212 220 218 219 213 215 221 229 235 231 230 233 235 235 238 239 240 238 240 241 249 249 246 250 256 258 260 262 264 266 271 274 278
196 214 218 179 187 143 193 194 178 166 193 235 243 222 207 202 210 211 211 222 223 225 224 222 233 239 236 235 238 240 243 244 248 249 245 240 245 250 251 251 252 255 256 258 264 266 269 275 281
210 212 265 227 197 242 198 251 136 175 209 231 235 248 249 209 206 214 221 223 226 230 236 236 235 239 244 243 241 242 243 246 248 251 252 251 247 244 247 250 248 250 253 256 258 263 266 271 277
249 309 268 239 52 14 238 250 247 216 193 215 241 249 244 245 233 229 230 236 232 231 234 236 237 241 242 244 243 242 247 251 251 255 255 254 254 251 247 246 247 246 250 254 259 263 266 268 267
239 263 273 99 96 56 317 295 268 262 260 255 245 247 251 246 243 242 239 235 236 240 240 236 240 240 243 246 250 252 256 261 263 260 256 256 253 251 251 248 244 245 247 251 256 257 262 265 265
217 228 249 245 108 196 290 264 239 244 244 243 246 248 252 252 250 248 248 245 246 246 243 238 235 232 238 246 251 252 256 261 259 257 256 256 252 249 247 245 244 242 245 250 252 255 259 261 267
206 206 252 288 116 224 175 274 310 255 191 222 247 246 250 254 260 261 253 242 233 229 237 250 251 247 238 236 241 244 245 250 259 263 267 269 262 255 245 251 249 246 246 251 253 252 256 259 263
110 101 188 237 136 316 250 271 240 226 216 224 239 232 239 232 223 235 252 259 249 248 248 245 241 237 239 237 237 241 241 247 251 254 260 262 270 266 250 234 238 240 242 253 258 253 253 263 268
137 105 76 66 203 246 223 195 254 219 229 230 69 97 93 32 298 272 265 258 272 276 268 256 249 241 233 235 234 238 240 240 241 238 232 235 241 256 253 233 234 238 240 249 256 261 269 260 260
182 153 82 31 353 218 355 212 248 301 340 53 125 129 35 311 331 323 272 271 285 293 287 272 254 249 236 239 242 237 236 234 240 243 245 247 246 247 252 241 239 240 243 245 249 249 260 267 269
201 176 147 191 189 198 355 238 253 247 307 355 241 211 294 332 345 325 308 306 298 299 288 272 260 242 239 243 241 238 238 237 239 235 243 240 228 239 239 239 239 241 245 248 249 254 259 263 268
184 221 77 103 345 72 205 255 305 278 277 156 137 101 59 19 1 336 327 329 318 309 290 271 255 243 237 240 231 222 221 223 225 228 222 216 214 223 235 237 241 247 255 259 261 262 262 263 265
276 153 101 319 135 233 255 239 232 215 238 122 128 114 40 345 7 16 18 9 351 323 295 268 242 221 217 213 216 216 214 213 214 210 208 212 216 226 235 243 249 253 255 258 261 265 268 269 272
169 189 215 173 175 182 171 243 257 71 49 103 112 76 73 68 58 49 33 13 360 347 315 267 237 222 218 219 209 198 197 196 201 206 210 219 226 232 240 251 260 268 273 272 272 272 272 274 275
247 208 190 155 210 217 120 262 157 95 76 91 67 15 86 83 76 59 36 15 344 331 313 287 261 247 248 240 217 203 195 194 200 211 225 242 255 263 266 271 275 277 277 280 281 280 277 276 276